• In Lithuania
  • List of Countries
  • For 7 days
  • Water Temperature
  • Satellite Maps
  • Weather Map
  • Weather Widgets
  • user-avatar
    Login

    Hourly Weather Trzymsze

    Today, 19 September, Wednesday

    Time Temperature Precipitation Wind Pressure Humidity
    00:00 +20°C° 0 mm 4 mps 753 mmHg 66%
    01:00 +19°C° 0 mm 4 mps 753 mmHg 67%
    02:00 +19°C° 0 mm 4 mps 753 mmHg 66%
    03:00 +19°C° 0 mm 4 mps 753 mmHg 66%
    04:00 +18°C° 0 mm 4 mps 753 mmHg 66%
    05:00 +18°C° 0 mm 4 mps 753 mmHg 65%
    06:00 +19°C° 0 mm 4 mps 753 mmHg 64%
    07:00 +19°C° 0 mm 4 mps 753 mmHg 63%
    08:00 +21°C° 0 mm 4 mps 754 mmHg 59%
    09:00 +23°C° 0 mm 4 mps 754 mmHg 55%
    10:00 +26°C° 0 mm 4 mps 754 mmHg 50%
    11:00 +27°C° 0 mm 4 mps 754 mmHg 48%
    12:00 +28°C° 0 mm 4 mps 754 mmHg 46%
    13:00 +29°C° 0 mm 4 mps 754 mmHg 44%
    14:00 +29°C° 0 mm 3 mps 754 mmHg 45%
    15:00 +29°C° 0 mm 3 mps 754 mmHg 46%
    16:00 +29°C° 0 mm 3 mps 754 mmHg 47%
    17:00 +27°C° 0 mm 2 mps 754 mmHg 52%
    18:00 +26°C° 0 mm 2 mps 754 mmHg 57%
    19:00 +24°C° 0 mm 1 mps 754 mmHg 61%
    20:00 +24°C° 0 mm 1 mps 754 mmHg 63%
    21:00 +23°C° 0 mm 1 mps 755 mmHg 65%
    22:00 +22°C° 0 mm 1 mps 755 mmHg 66%
    23:00 +21°C° 0 mm 2 mps 755 mmHg 68%

    Tomorrow, 20 September, Thursday

    Time Temperature Precipitation Wind Pressure Humidity
    00:00 +21°C° 0 mm 2 mps 755 mmHg 70%
    01:00 +20°C° 0 mm 2 mps 755 mmHg 72%
    02:00 +20°C° 0 mm 2 mps 755 mmHg 73%
    03:00 +19°C° 0 mm 2 mps 754 mmHg 75%
    04:00 +19°C° 0 mm 2 mps 754 mmHg 77%
    05:00 +19°C° 0 mm 2 mps 755 mmHg 75%
    06:00 +20°C° 0 mm 2 mps 755 mmHg 74%
    07:00 +20°C° 0 mm 3 mps 755 mmHg 73%
    08:00 +22°C° 0 mm 3 mps 755 mmHg 67%
    09:00 +25°C° 0 mm 3 mps 755 mmHg 60%
    10:00 +27°C° 0 mm 3 mps 755 mmHg 53%
    11:00 +28°C° 0 mm 3 mps 755 mmHg 50%
    12:00 +29°C° 0 mm 3 mps 755 mmHg 47%
    13:00 +30°C° 0 mm 3 mps 754 mmHg 44%
    14:00 +30°C° 0 mm 3 mps 754 mmHg 44%
    15:00 +30°C° 0 mm 3 mps 754 mmHg 45%
    16:00 +29°C° 0 mm 2 mps 754 mmHg 45%
    17:00 +28°C° 0 mm 2 mps 754 mmHg 50%
    18:00 +26°C° 0 mm 2 mps 754 mmHg 54%
    19:00 +24°C° 0 mm 2 mps 754 mmHg 59%
    20:00 +24°C° 0 mm 2 mps 754 mmHg 60%
    21:00 +23°C° 0 mm 2 mps 754 mmHg 61%
    22:00 +23°C° 0 mm 2 mps 754 mmHg 62%
    23:00 +21°C° 0 mm 2 mps 754 mmHg 62%

    Day after tomorrow, 21 September, Friday

    Time Temperature Precipitation Wind Pressure Humidity
    00:00 +21°C° 0 mm 3 mps 754 mmHg 63%
    01:00 +20°C° 0 mm 3 mps 753 mmHg 63%
    02:00 +20°C° 0 mm 3 mps 753 mmHg 64%
    03:00 +20°C° 0 mm 3 mps 753 mmHg 65%
    04:00 +19°C° 0 mm 3 mps 753 mmHg 67%
    05:00 +20°C° 0 mm 3 mps 752 mmHg 67%
    06:00 +20°C° 0 mm 4 mps 752 mmHg 68%
    07:00 +20°C° 0 mm 4 mps 752 mmHg 68%
    08:00 +22°C° 0 mm 5 mps 752 mmHg 62%
    09:00 +25°C° 0 mm 5 mps 751 mmHg 56%
    10:00 +27°C° 0 mm 6 mps 751 mmHg 50%
    11:00 +28°C° 0 mm 6 mps 750 mmHg 45%
    12:00 +29°C° 0 mm 7 mps 750 mmHg 41%
    13:00 +30°C° 0 mm 7 mps 749 mmHg 37%
    14:00 +29°C° 0 mm 7 mps 749 mmHg 38%
    15:00 +29°C° 0 mm 6 mps 748 mmHg 39%
    16:00 +29°C° 0 mm 6 mps 748 mmHg 40%
    17:00 +28°C° 0 mm 6 mps 748 mmHg 43%
    18:00 +27°C° 0 mm 6 mps 747 mmHg 46%
    19:00 +24°C° 0 mm 6 mps 747 mmHg 49%
    20:00 +24°C° 0 mm 6 mps 748 mmHg 50%
    21:00 +24°C° 0 mm 7 mps 748 mmHg 51%
    22:00 +24°C° 0 mm 7 mps 748 mmHg 52%
    23:00 +21°C° 0.1 mm 7 mps 749 mmHg 57%

    22 September, Saturday

    Time Temperature Precipitation Wind Pressure Humidity
    00:00 +17°C° 0.1 mm 7 mps 750 mmHg 63%
    01:00 +15°C° 0.1 mm 7 mps 751 mmHg 69%
    02:00 +14°C° 0.7 mm 6 mps 751 mmHg 71%
    03:00 +13°C° 0.7 mm 6 mps 752 mmHg 74%
    04:00 +12°C° 0.7 mm 5 mps 753 mmHg 76%
    05:00 +12°C° 0.4 mm 5 mps 753 mmHg 75%
    06:00 +12°C° 0.4 mm 5 mps 754 mmHg 74%
    07:00 +13°C° 0.4 mm 4 mps 755 mmHg 72%
    08:00 +13°C° 0 mm 5 mps 755 mmHg 69%
    09:00 +13°C° 0 mm 5 mps 755 mmHg 66%
    10:00 +13°C° 0 mm 5 mps 755 mmHg 63%
    11:00 +14°C° 0 mm 5 mps 755 mmHg 59%
    12:00 +15°C° 0 mm 6 mps 755 mmHg 56%
    13:00 +15°C° 0 mm 6 mps 755 mmHg 52%
    14:00 +16°C° 0.1 mm 6 mps 755 mmHg 51%
    15:00 +16°C° 0.1 mm 6 mps 755 mmHg 50%
    16:00 +16°C° 0.1 mm 5 mps 755 mmHg 48%
    17:00 +15°C° 0 mm 5 mps 755 mmHg 51%
    18:00 +14°C° 0 mm 4 mps 755 mmHg 53%
    19:00 +13°C° 0 mm 3 mps 755 mmHg 55%
    20:00 +13°C° 0 mm 3 mps 755 mmHg 57%
    21:00 +12°C° 0 mm 3 mps 756 mmHg 58%
    22:00 +12°C° 0 mm 4 mps 756 mmHg 59%
    23:00 +11°C° 0 mm 4 mps 756 mmHg 61%

    23 September, Sunday

    Time Temperature Precipitation Wind Pressure Humidity
    00:00 +11°C° 0 mm 3 mps 756 mmHg 62%
    01:00 +10°C° 0 mm 3 mps 756 mmHg 63%
    02:00 +10°C° 0 mm 3 mps 756 mmHg 65%
    03:00 +10°C° 0 mm 4 mps 756 mmHg 67%
    04:00 +8°C° 0 mm 4 mps 756 mmHg 69%
    05:00 +8°C° 0 mm 4 mps 756 mmHg 69%
    06:00 +10°C° 0 mm 4 mps 756 mmHg 69%
    07:00 +10°C° 0 mm 4 mps 756 mmHg 68%
    08:00 +10°C° 0 mm 5 mps 756 mmHg 61%
    09:00 +13°C° 0 mm 5 mps 756 mmHg 54%
    10:00 +14°C° 0 mm 5 mps 756 mmHg 48%
    11:00 +15°C° 0 mm 5 mps 755 mmHg 45%
    12:00 +16°C° 0 mm 5 mps 755 mmHg 42%
    13:00 +17°C° 0 mm 4 mps 754 mmHg 40%
    14:00 +17°C° 0 mm 4 mps 753 mmHg 40%
    15:00 +17°C° 0 mm 4 mps 753 mmHg 41%
    16:00 +17°C° 0 mm 3 mps 752 mmHg 42%
    17:00 +15°C° 0.2 mm 4 mps 751 mmHg 48%
    18:00 +15°C° 0.2 mm 4 mps 750 mmHg 53%
    19:00 +14°C° 0.2 mm 4 mps 749 mmHg 59%
    20:00 +13°C° 1.6 mm 5 mps 748 mmHg 64%
    21:00 +13°C° 1.6 mm 5 mps 747 mmHg 70%
    22:00 +12°C° 1.6 mm 5 mps 746 mmHg 76%
    23:00 +11°C° 2.9 mm 6 mps 744 mmHg 78%

    24 September, Monday

    Time Temperature Precipitation Wind Pressure Humidity
    00:00 +11°C° 2.9 mm 7 mps 742 mmHg 79%
    01:00 +11°C° 2.9 mm 8 mps 741 mmHg 81%
    02:00 +12°C° 2.7 mm 8 mps 740 mmHg 82%
    03:00 +12°C° 2.7 mm 8 mps 738 mmHg 83%
    04:00 +13°C° 2.7 mm 9 mps 737 mmHg 84%
    05:00 +13°C° 0.5 mm 8 mps 737 mmHg 80%
    06:00 +13°C° 0.5 mm 8 mps 737 mmHg 76%
    07:00 +13°C° 0.5 mm 8 mps 737 mmHg 71%
    08:00 +12°C° 0.5 mm 8 mps 736 mmHg 73%
    09:00 +12°C° 0.5 mm 8 mps 736 mmHg 75%
    10:00 +12°C° 0.5 mm 9 mps 735 mmHg 76%
    11:00 +12°C° 0.6 mm 10 mps 735 mmHg 76%
    12:00 +13°C° 0.6 mm 11 mps 736 mmHg 76%
    13:00 +13°C° 0.6 mm 12 mps 736 mmHg 75%
    14:00 +12°C° 0.5 mm 12 mps 737 mmHg 77%
    15:00 +10°C° 0.5 mm 13 mps 738 mmHg 79%
    16:00 +9°C° 0.5 mm 13 mps 738 mmHg 80%
    17:00 +9°C° 0.9 mm 14 mps 740 mmHg 79%
    18:00 +9°C° 0.9 mm 14 mps 741 mmHg 78%
    19:00 +9°C° 0.9 mm 14 mps 742 mmHg 76%
    20:00 +9°C° 0.5 mm 14 mps 743 mmHg 76%
    21:00 +9°C° 0.5 mm 14 mps 744 mmHg 76%
    22:00 +9°C° 0.5 mm 14 mps 746 mmHg 76%
    23:00 +8°C° 0.3 mm 13 mps 747 mmHg 76%
    Show more